This demonstration page uses our WeatherBlox Daily Observations layout. Learn more.

Left ArrowRight Arrow

Hourly Observations for June 27, 2016

Temp ( °F °C ) Dew Point ( °F °C ) Humidity (%) Winds ( mph kmh ) Pressure ( in mb ) Visibility ( mi km ) Precip ( " mm )
12:52 am 00:52 Clear 73 22.8 69 20.6 87 87 SSE 6 9 30.08 1019 10 16 0.00 0.00
1:52 am 01:52 Clear 74 23.3 70 21.1 88 88 E 5 7 30.07 1018 10 16 0.00 0.00
2:40 am 02:40 Partly Cloudy with Light Rain 73 23 70 21 89 89 Calm 30.09 1019 10 16 0.00 0.00
2:52 am 02:52 Partly Cloudy with Light Rain 73 22.8 70 21.1 90 90 N 6 9 30.06 1018 10 16 0.00 0.03
3:04 am 03:04 Mostly Cloudy 73 23 70 21 89 89 NNW 8 13 30.09 1019 10 16 0.00 0.00
3:16 am 03:16 Mostly Cloudy 73 23 70 21 89 89 NNW 6 9 30.09 1019 10 16 0.00 0.00
3:33 am 03:33 Cloudy 73 22.8 70 21.1 90 90 N 3 6 30.09 1019 10 16 0.00 0.03
3:52 am 03:52 Mostly Cloudy with Light Rain 73 22.8 70 21.1 90 90 SW 3 6 30.09 1019 10 16 0.00 0.03
4:52 am 04:52 Clear 73 22.8 69 20.6 87 87 NW 3 6 30.09 1019 10 16 0.00 0.03
5:52 am 05:52 Clear 72 22.2 69 20.6 91 91 Calm 30.08 1019 10 16 0.00 0.00
6:52 am 06:52 Sunny 72 22.2 69 20.6 91 91 NW 6 9 30.09 1019 10 16 0.00 0.00
7:16 am 07:16 Partly Cloudy 72 22 70 21 94 94 NW 8 13 30.09 1019 10 16 0.00 0.00
7:52 am 07:52 Mostly Sunny 74 23.3 70 21.1 88 88 WNW 6 9 30.11 1020 10 16 0.00 0.00
8:52 am 08:52 Cloudy 75 23.9 70 21.1 84 84 NNW 6 9 30.11 1020 10 16 0.00 0.00
8:54 am 08:54 Cloudy with Thunderstorms 75 24 70 21 83 83 NNW 5 7 30.12 1020 10 16 0.00 0.00
9:03 am 09:03 Cloudy 75 24 70 21 83 83 NW 6 9 30.12 1020 10 16 0.00 0.00
9:52 am 09:52 Mostly Cloudy 77 25 69 20.6 77 77 NNE 9 15 30.12 1020 10 16 0.00 0.00
10:52 am 10:52 Mostly Cloudy 78 25.6 70 21.1 76 76 NNE 3 6 30.13 1020 10 16 0.00 0.00
11:52 am 11:52 Mostly Cloudy 79 26.1 71 21.7 77 77 NE 6 9 30.13 1020 10 16 0.00 0.00
12:52 pm 12:52 Sunny 83 28.3 70 21.1 65 65 E 5 7 30.12 1020 10 16 0.00 0.00
1:52 pm 13:52 Mostly Cloudy 85 29.4 68 20 57 57 Calm 30.10 1019 10 16 0.00 0.00
2:52 pm 14:52 Mostly Sunny 88 31.1 67 19.4 50 50 NNW 6 9 30.07 1018 10 16 0.00 0.00
3:52 pm 15:52 Mostly Sunny 88 31.1 66 18.9 48 48 NW 6 9 30.05 1018 10 16 0.00 0.00
4:52 pm 16:52 Mostly Sunny 88 31.1 67 19.4 50 50 N 8 13 30.05 1018 10 16 0.00 0.00
5:52 pm 17:52 Sunny 88 31 66 19 49 49 NNE 9 15 30.00 1016 10 16 0.00 0.00
6:52 pm 18:52 Sunny 87 30.6 69 20.6 55 55 NE 9 15 30.06 1018 10 16 0.00 0.00
7:52 pm 19:52 Sunny 85 29.4 69 20.6 59 59 ENE 8 13 30.07 1018 10 16 0.00 0.00
8:52 pm 20:52 Clear 82 27.8 69 20.6 65 65 ENE 5 7 30.07 1018 10 16 0.00 0.00
9:52 pm 21:52 Clear 79 26.1 69 20.6 72 72 E 6 9 30.10 1019 10 16 0.00 0.00
10:52 pm 22:52 Clear 77 25 69 20.6 77 77 E 3 6 30.11 1020 10 16 0.00 0.00
11:52 pm 23:52 Clear 73 22.8 68 20 84 84 ESE 7 11 30.11 1020 10 16 0.00 0.00

Powered by AerisWeather